Temp
-5 -6 -6 -6 -6 -6 -6 -6 -6 -6 -6 -6 -6 -6 -6 -6 -6 -6 -6 -6 -6 -6 -6 -6 -6 -6 -6 -6 -6 -6 -6 -6 -6 -6 -6 -6 -6 -6 -7 -7 -7 -7
-5 -5 -6 -6 -6 -6 -6 -6 -6 -6 -6 -6 -6 -6 -6 -6 -6 -6 -6 -6 -6 -6 -6 -6 -6 -6 -6 -6 -6 -6 -6 -6 -6 -6 -6 -6 -6 -6 -6 -6 -7 -7
-5 -5 -6 -6 -6 -6 -6 -6 -6 -6 -6 -6 -6 -6 -6 -6 -6 -6 -6 -6 -6 -6 -6 -6 -6 -6 -6 -6 -6 -6 -6 -6 -6 -6 -6 -6 -6 -6 -6 -6 -6 -7
-5 -6 -6 -6 -6 -6 -6 -6 -6 -6 -6 -6 -6 -6 -6 -6 -6 -6 -6 -6 -6 -6 -6 -6 -6 -6 -6 -6 -6 -6 -6 -6 -6 -6 -6 -6 -6 -6 -6 -6 -6 -6
-5 -5 -6 -6 -6 -6 -6 -6 -6 -6 -6 -6 -6 -6 -6 -6 -6 -6 -6 -6 -6 -6 -6 -6 -6 -6 -6 -6 -6 -6 -6 -6 -6 -6 -6 -6 -6 -6 -6 -6 -6 -6
-5 -5 -5 -6 -6 -6 -6 -5 -6 -6 -6 -6 -6 -6 -6 -6 -6 -6 -6 -6 -6 -6 -6 -6 -6 -6 -6 -6 -6 -6 -6 -6 -6 -6 -6 -6 -6 -6 -6 -6 -6 -6
-5 -5 -5 -5 -5 -6 -6 -5 -5 -5 -6 -6 -6 -6 -6 -6 -6 -6 -6 -6 -6 -6 -6 -6 -6 -6 -6 -6 -6 -6 -6 -6 -6 -6 -6 -6 -6 -6 -6 -6 -6 -6
-5 -5 -5 -5 -5 -6 -6 -6 -6 -5 -6 -6 -6 -6 -6 -6 -6 -6 -6 -6 -6 -6 -6 -6 -6 -6 -6 -6 -6 -6 -6 -6 -6 -6 -6 -6 -6 -6 -6 -6 -6 -6
-5 -5 -5 -5 -5 -6 -6 -6 -6 -6 -6 -6 -6 -6 -6 -6 -6 -6 -6 -6 -6 -6 -6 -6 -6 -6 -6 -6 -6 -6 -6 -6 -6 -6 -6 -6 -6 -6 -6 -6 -6 -6
-5 -5 -5 -5 -5 -6 -6 -6 -5 -6 -6 -6 -6 -6 -6 -6 -6 -6 -6 -6 -6 -6 -6 -6 -6 -6 -6 -6 -6 -6 -6 -6 -6 -6 -6 -6 -6 -6 -6 -6 -6 -6
-5 -5 -5 -5 -5 -5 -5 -5 -5 -5 -6 -6 -6 -6 -6 -6 -6 -6 -6 -6 -6 -6 -6 -6 -6 -6 -6 -6 -6 -6 -6 -6 -6 -6 -6 -6 -6 -6 -6 -6 -6 -6
-6 -5 -5 -5 -5 -5 -5 -5 -5 -5 -5 -6 -6 -6 -6 -6 -6 -6 -6 -6 -6 -6 -6 -6 -6 -6 -6 -6 -6 -6 -6 -6 -6 -6 -6 -6 -6 -6 -6 -6 -6 -6
-6 -6 -6 -5 -5 -5 -5 -5 -6 -5 -5 -5 -6 -6 -6 -6 -6 -6 -6 -6 -6 -6 -6 -6 -6 -6 -6 -6 -6 -6 -6 -6 -6 -6 -6 -6 -6 -6 -6 -6 -6 -6
-6 -6 -6 -6 -6 -5 -5 -5 -5 -6 -6 -5 -5 -6 -6 -6 -6 -6 -6 -6 -6 -6 -6 -6 -6 -6 -6 -6 -6 -6 -6 -6 -6 -6 -5 -5 -5 -6 -6 -6 -6 -6
-6 -6 -6 -6 -6 -6 -5 -5 -5 -5 -6 -6 -6 -6 -6 -6 -6 -6 -6 -6 -6 -6 -6 -6 -6 -6 -6 -6 -6 -6 -6 -6 -6 -6 -5 -5 -5 -5 -5 -5 -5 -5
-6 -6 -6 -6 -6 -6 -6 -6 -6 -6 -6 -6 -6 -6 -6 -6 -6 -6 -6 -6 -6 -6 -6 -6 -6 -6 -6 -6 -6 -6 -6 -6 -6 -6 -6 -6 -6 -5 -5 -5 -5 -5
-6 -6 -6 -6 -6 -6 -6 -6 -6 -6 -6 -6 -6 -6 -6 -6 -6 -6 -6 -6 -6 -6 -6 -6 -6 -6 -6 -6 -6 -6 -6 -6 -6 -6 -6 -6 -6 -6 -6 -6 -5 -5
-6 -6 -6 -6 -6 -6 -6 -6 -6 -6 -6 -6 -6 -6 -6 -6 -6 -6 -6 -6 -6 -6 -6 -7 -6 -6 -6 -6 -6 -6 -6 -6 -6 -6 -6 -6 -6 -6 -6 -6 -6 -6
-6 -6 -6 -6 -6 -6 -6 -6 -6 -6 -6 -6 -6 -6 -6 -6 -6 -6 -6 -6 -6 -6 -6 -7 -6 -6 -6 -6 -6 -6 -6 -6 -6 -6 -6 -6 -6 -6 -6 -6 -6 -6
-6 -6 -6 -6 -6 -6 -6 -6 -6 -6 -6 -6 -6 -6 -6 -6 -6 -6 -6 -6 -6 -6 -6 -6 -6 -6 -6 -6 -6 -6 -6 -6 -6 -6 -6 -6 -6 -6 -6 -6 -6 -6
-6 -6 -6 -6 -6 -6 -6 -6 -6 -6 -6 -6 -6 -6 -6 -6 -6 -6 -6 -6 -6 -6 -6 -6 -6 -6 -6 -6 -6 -6 -6 -6 -6 -6 -6 -6 -6 -6 -6 -6 -6 -6
-7 -7 -7 -7 -6 -6 -6 -6 -6 -6 -6 -6 -6 -6 -7 -7 -6 -6 -6 -6 -6 -6 -6 -6 -6 -6 -6 -6 -6 -6 -6 -6 -6 -6 -6 -6 -6 -6 -6 -6 -6 -6
-7 -7 -7 -7 -7 -6 -6 -6 -6 -6 -6 -6 -6 -6 -6 -7 -7 -6 -6 -6 -6 -6 -6 -6 -6 -6 -6 -6 -6 -6 -7 -7 -7 -7 -7 -7 -7 -6 -6 -6 -6 -6
-7 -7 -7 -7 -7 -7 -7 -7 -6 -6 -6 -6 -6 -6 -7 -7 -7 -7 -7 -7 -6 -6 -6 -6 -6 -7 -7 -6 -6 -7 -6 -7 -7 -7 -7 -7 -7 -7 -7 -6 -6 -6
-7 -7 -7 -7 -7 -7 -7 -7 -6 -6 -6 -7 -6 -7 -7 -7 -7 -7 -7 -7 -7 -7 -7 -6 -6 -6 -7 -6 -6 -7 -6 -6 -6 -7 -7 -7 -7 -7 -7 -7 -6 -6
-8 -7 -7 -7 -7 -7 -7 -7 -7 -7 -7 -7 -7 -7 -7 -7 -7 -7 -7 -7 -7 -7 -7 -7 -6 -7 -7 -7 -7 -7 -7 -6 -6 -6 -7 -7 -7 -7 -7 -7 -6 -6
Height
5949 5950 5951 5952 5952 5953 5954 5955 5955 5956 5957 5957 5958 5958 5959 5959 5960 5961 5962 5963 5963 5964 5964 5965 5966 5967 5967 5968 5969 5969 5970 5970 5970 5970 5970 5970 5970 5971 5971 5972 5972 5972
5948 5949 5950 5951 5952 5952 5953 5954 5955 5956 5957 5957 5958 5958 5958 5959 5960 5960 5961 5962 5963 5963 5964 5965 5965 5966 5967 5968 5968 5969 5969 5970 5970 5970 5970 5970 5970 5970 5971 5972 5972 5972
5947 5948 5949 5950 5951 5952 5953 5953 5954 5955 5956 5957 5957 5958 5958 5959 5959 5960 5960 5961 5962 5963 5964 5964 5965 5966 5966 5967 5968 5968 5969 5969 5969 5969 5969 5970 5970 5970 5971 5971 5972 5972
5946 5947 5948 5949 5950 5951 5952 5953 5954 5954 5955 5956 5957 5957 5958 5958 5959 5960 5960 5961 5962 5962 5963 5964 5964 5965 5966 5966 5967 5968 5968 5968 5968 5968 5969 5969 5970 5970 5970 5971 5971 5972
5945 5946 5947 5948 5949 5950 5951 5952 5953 5953 5954 5955 5956 5957 5958 5959 5959 5960 5960 5961 5961 5962 5962 5963 5964 5964 5965 5966 5966 5967 5967 5967 5967 5968 5968 5969 5969 5970 5970 5970 5971 5971
5943 5945 5946 5947 5948 5949 5950 5951 5952 5953 5953 5954 5955 5956 5957 5958 5959 5959 5960 5960 5961 5961 5962 5962 5963 5964 5964 5965 5965 5966 5966 5967 5967 5967 5968 5968 5969 5969 5969 5970 5970 5970
5941 5943 5944 5945 5946 5947 5948 5949 5950 5951 5952 5953 5954 5955 5956 5957 5958 5958 5959 5960 5960 5961 5961 5962 5962 5963 5964 5964 5964 5965 5965 5966 5966 5967 5967 5968 5968 5968 5969 5969 5969 5969
5939 5940 5942 5943 5944 5945 5946 5947 5949 5950 5951 5952 5953 5954 5955 5956 5957 5957 5958 5959 5959 5960 5961 5961 5962 5962 5963 5963 5964 5964 5965 5965 5966 5966 5966 5967 5967 5967 5968 5968 5968 5968
5938 5939 5940 5941 5943 5944 5944 5945 5947 5948 5949 5950 5951 5952 5953 5954 5955 5956 5957 5957 5958 5959 5960 5960 5961 5961 5961 5962 5963 5963 5964 5964 5965 5965 5965 5966 5966 5966 5967 5967 5967 5967
5937 5938 5939 5940 5941 5942 5943 5944 5945 5946 5947 5948 5950 5950 5951 5952 5953 5954 5955 5956 5957 5957 5958 5959 5959 5960 5960 5961 5962 5962 5963 5964 5964 5964 5965 5965 5965 5966 5966 5966 5966 5967
5935 5936 5937 5938 5939 5940 5941 5943 5944 5945 5946 5947 5948 5949 5950 5951 5951 5952 5953 5954 5955 5956 5956 5957 5958 5958 5959 5960 5960 5961 5962 5963 5963 5964 5964 5964 5965 5965 5965 5966 5966 5966
5933 5934 5935 5936 5937 5938 5939 5941 5942 5943 5944 5945 5946 5947 5948 5949 5949 5950 5951 5952 5953 5954 5955 5955 5956 5956 5957 5958 5959 5960 5960 5961 5962 5963 5963 5963 5964 5964 5964 5965 5965 5966
5931 5932 5933 5934 5935 5936 5937 5938 5940 5941 5942 5943 5944 5945 5946 5946 5947 5948 5949 5950 5951 5952 5953 5953 5954 5955 5955 5956 5957 5958 5959 5959 5960 5961 5962 5962 5962 5963 5963 5963 5964 5964
5928 5929 5930 5932 5933 5933 5934 5935 5936 5938 5939 5940 5941 5942 5943 5944 5945 5946 5947 5948 5949 5950 5951 5951 5952 5952 5953 5954 5955 5956 5957 5957 5958 5959 5960 5960 5961 5961 5961 5962 5962 5963
5925 5926 5927 5929 5930 5931 5932 5933 5934 5935 5936 5937 5939 5939 5940 5941 5942 5943 5944 5945 5946 5947 5948 5949 5950 5950 5950 5951 5952 5953 5954 5955 5956 5957 5958 5959 5959 5959 5959 5960 5960 5960
5922 5923 5924 5925 5927 5928 5929 5930 5931 5932 5933 5934 5935 5936 5937 5938 5939 5940 5941 5942 5943 5944 5946 5947 5947 5948 5948 5949 5950 5951 5952 5953 5954 5955 5956 5956 5957 5957 5957 5958 5958 5958
5918 5920 5921 5922 5924 5925 5926 5926 5927 5928 5929 5930 5930 5931 5932 5933 5935 5936 5938 5939 5940 5941 5942 5944 5944 5945 5946 5946 5948 5949 5950 5950 5951 5952 5953 5954 5954 5955 5955 5956 5956 5957
5914 5916 5917 5919 5920 5921 5922 5922 5923 5924 5925 5926 5927 5927 5928 5929 5931 5932 5934 5935 5936 5937 5939 5940 5941 5942 5943 5943 5944 5946 5946 5947 5948 5949 5950 5951 5951 5952 5953 5953 5954 5954
5911 5912 5914 5915 5916 5917 5918 5918 5919 5920 5921 5922 5923 5924 5925 5926 5927 5929 5930 5931 5932 5934 5935 5936 5937 5938 5939 5940 5941 5942 5943 5944 5945 5946 5947 5947 5948 5949 5950 5950 5951 5952
5908 5909 5910 5911 5913 5914 5914 5914 5915 5916 5916 5917 5918 5920 5921 5922 5924 5925 5926 5927 5928 5929 5931 5932 5933 5934 5935 5936 5938 5940 5941 5942 5942 5942 5943 5944 5945 5945 5946 5947 5948 5948
5905 5906 5907 5908 5909 5910 5910 5911 5911 5911 5912 5913 5914 5915 5917 5918 5919 5920 5922 5923 5924 5925 5926 5927 5928 5930 5932 5933 5935 5937 5938 5939 5940 5940 5940 5941 5941 5942 5943 5943 5944 5945
5902 5903 5904 5905 5906 5907 5907 5908 5908 5908 5908 5909 5909 5910 5911 5913 5914 5916 5917 5919 5920 5921 5923 5923 5924 5926 5929 5930 5932 5933 5935 5936 5936 5937 5938 5938 5938 5939 5939 5940 5940 5941
5899 5900 5902 5903 5903 5904 5904 5905 5906 5906 5906 5906 5906 5906 5906 5907 5909 5911 5913 5914 5916 5917 5918 5920 5922 5924 5926 5927 5928 5930 5931 5932 5933 5934 5935 5935 5936 5936 5936 5937 5937 5937
5896 5898 5899 5900 5900 5902 5902 5903 5903 5903 5903 5903 5902 5902 5902 5902 5903 5905 5908 5909 5912 5913 5914 5916 5919 5921 5921 5922 5924 5925 5926 5928 5929 5931 5932 5932 5933 5933 5934 5934 5934 5934
5893 5895 5896 5897 5898 5899 5899 5899 5900 5900 5900 5899 5898 5899 5899 5898 5898 5900 5903 5905 5907 5909 5910 5912 5915 5917 5917 5918 5920 5921 5922 5924 5926 5927 5928 5928 5929 5930 5931 5931 5931 5931
5890 5891 5892 5893 5894 5895 5896 5896 5897 5897 5898 5897 5897 5898 5897 5895 5895 5896 5898 5901 5903 5905 5906 5909 5911 5914 5914 5913 5915 5917 5919 5920 5922 5923 5924 5924 5925 5926 5927 5927 5928 5928
Wind_Speed
16 14 12 11 10 10 9 7 6 6 6 6 6 6 6 6 7 7 7 8 8 8 7 7 6 6 7 7 7 7 7 7 8 8 8 8 8 8 8 9 9 8
17 16 14 13 13 12 11 9 8 8 7 7 7 7 6 7 7 7 7 7 7 8 8 8 7 7 7 7 7 7 8 8 8 8 8 8 8 9 9 9 9 9
18 17 16 16 15 14 12 11 10 10 9 9 8 7 7 7 7 7 7 7 8 8 8 8 8 8 7 7 7 7 8 7 7 8 8 8 9 9 9 10 10 10
19 18 18 17 17 16 14 13 12 12 11 10 9 9 9 8 8 8 8 8 8 9 9 9 8 8 7 7 7 7 7 7 7 7 8 8 9 9 9 9 9 10
21 20 19 19 18 17 16 15 14 14 13 12 11 11 10 10 9 9 9 9 9 9 9 9 9 8 8 8 7 7 6 7 7 7 8 9 9 9 9 9 9 9
22 21 20 20 19 18 18 17 16 15 14 13 13 13 12 12 11 10 10 9 10 10 10 10 10 9 9 8 8 7 7 7 7 8 8 9 9 9 9 9 9 9
23 22 21 20 20 19 19 18 17 16 16 15 15 14 14 13 13 12 11 11 10 10 10 11 11 10 10 9 8 8 8 8 8 8 8 8 9 9 9 9 9 9
24 23 22 21 21 21 20 19 19 18 17 17 17 16 16 15 15 14 13 12 12 11 11 11 12 11 11 10 9 9 8 8 8 8 8 8 8 8 8 8 9 9
23 23 23 22 22 22 22 21 21 20 19 19 19 18 18 17 17 16 15 15 14 13 12 12 12 12 11 11 10 10 9 9 9 9 8 8 8 8 8 8 8 8
22 22 22 22 23 24 24 24 23 22 22 21 21 20 20 19 18 18 17 17 16 15 14 13 12 12 12 12 12 12 11 11 11 10 10 9 8 8 7 7 7 8
21 21 22 22 23 24 25 25 25 24 24 23 23 22 21 21 20 20 19 18 18 17 16 15 14 14 14 13 13 13 13 13 12 12 11 10 9 8 7 7 7 7
21 21 21 22 22 23 24 25 26 26 26 25 25 24 23 23 22 21 21 20 19 18 17 17 16 16 16 15 15 15 15 14 14 13 13 12 11 10 9 8 8 8
23 22 22 22 22 23 23 24 25 26 27 27 26 26 25 25 24 23 23 22 21 21 20 19 19 18 18 18 17 17 16 16 15 14 14 13 13 12 11 10 10 9
26 25 24 24 23 24 24 24 25 26 27 27 28 28 27 27 26 26 25 24 24 23 22 21 21 21 20 20 19 19 18 18 17 16 15 15 14 14 14 13 13 12
28 28 27 26 25 25 26 26 26 27 27 28 28 29 30 29 29 28 27 26 26 26 25 24 23 23 23 22 21 20 20 19 18 18 17 16 16 16 16 16 16 15
30 30 30 29 28 27 27 28 29 29 29 28 29 30 31 31 31 30 29 28 27 27 26 26 25 25 25 24 23 22 22 21 20 19 18 17 17 17 17 18 18 17
31 30 30 30 29 29 29 30 32 33 33 31 31 31 32 32 32 32 31 30 30 29 28 27 27 27 26 26 25 24 24 23 22 21 20 19 18 18 18 18 19 19
30 30 29 28 28 28 29 31 32 34 35 34 34 33 33 34 34 33 33 33 32 31 29 29 29 28 28 28 27 26 25 24 24 23 22 21 20 20 19 19 19 20
29 30 29 29 28 27 28 30 30 31 34 36 37 36 35 35 35 35 34 34 34 33 32 31 31 30 30 30 29 28 27 26 26 25 25 24 23 22 21 21 20 21
27 28 27 27 26 25 26 28 29 30 31 35 38 39 37 36 36 36 36 35 35 35 35 34 34 32 32 32 31 30 29 28 28 27 27 26 26 25 24 23 23 22
26 26 25 25 23 22 23 25 27 28 29 31 35 39 40 39 38 38 38 37 37 37 37 37 37 36 34 33 32 31 31 30 29 29 28 28 28 28 27 26 25 24
25 25 25 24 22 21 21 21 21 24 27 29 31 35 39 41 41 41 39 39 39 38 38 38 39 37 36 35 33 32 32 32 31 30 30 29 29 29 29 28 27 26
24 24 24 24 24 24 23 22 20 20 22 26 28 32 37 42 43 43 41 40 40 39 38 38 37 37 37 37 35 34 34 34 33 31 31 31 31 31 31 30 29 28
24 24 24 24 25 25 25 24 21 17 17 18 19 23 30 38 43 44 44 43 41 39 39 38 36 36 38 39 38 36 36 35 34 33 32 32 32 32 32 32 31 30
26 26 26 26 26 26 25 24 20 16 14 15 15 16 20 26 34 39 42 44 42 39 39 39 37 38 39 40 40 39 38 36 35 35 34 34 34 33 33 33 33 33
29 29 28 28 28 27 27 27 25 20 17 16 15 14 15 16 19 24 30 35 39 39 38 37 36 35 38 41 41 41 40 38 37 36 36 36 35 35 35 35 35 35
Wind_Direction
215 214 215 214 215 220 220 218 222 225 225 224 225 228 230 229 231 236 242 244 244 244 244 243 242 237 233 231 228 228 229 227 223 221 219 216 215 213 212 214 217 219
216 213 213 215 218 221 221 219 221 223 227 229 229 228 230 231 231 234 240 245 246 247 245 241 236 231 229 227 226 225 226 226 224 226 225 222 222 222 220 221 223 226
220 217 215 216 219 221 220 219 221 223 225 229 233 231 230 232 235 237 240 243 245 245 243 240 234 228 226 225 226 226 226 226 227 229 232 231 230 228 227 227 228 231
222 220 218 218 220 221 220 218 219 222 224 227 231 231 230 230 231 235 238 239 240 239 239 239 237 232 227 226 228 229 230 231 233 235 237 239 239 237 235 233 233 235
221 220 220 220 221 222 223 221 219 219 221 225 228 230 231 230 228 229 233 235 236 236 235 235 237 236 232 227 226 228 232 235 238 240 241 243 244 244 241 238 238 239
221 220 220 221 221 223 224 225 224 221 221 223 226 228 230 232 231 229 230 233 234 235 234 232 233 234 233 230 224 223 226 233 238 240 241 243 246 246 244 241 241 241
224 223 222 223 223 224 225 226 226 226 225 225 226 227 229 232 234 234 233 234 234 235 235 234 234 234 236 236 232 228 226 229 234 237 237 240 244 246 245 244 245 245
226 226 225 226 226 228 229 228 228 229 229 229 229 229 229 231 233 236 237 237 237 236 236 236 237 238 239 240 241 241 239 238 239 239 236 235 238 243 244 246 247 248
229 230 229 228 229 230 232 231 230 230 230 232 233 233 232 232 233 235 237 239 239 239 238 239 240 242 244 245 247 249 250 250 249 247 244 239 237 239 241 245 248 249
234 234 234 232 231 232 233 234 233 232 232 232 234 235 235 235 235 236 237 238 240 241 242 242 242 244 246 247 249 250 252 254 255 255 253 250 246 244 242 246 251 254
236 237 238 237 236 235 236 236 236 235 235 235 236 237 237 237 237 238 239 240 241 242 244 245 245 245 246 247 248 250 252 254 257 259 260 260 258 256 253 254 257 261
236 237 237 238 238 239 240 240 240 239 238 238 239 240 240 240 240 240 241 242 243 243 244 245 247 248 248 248 248 249 250 252 255 258 260 263 263 261 260 261 263 267
234 236 238 239 240 241 241 242 242 243 242 241 240 241 242 243 243 243 243 244 245 245 244 244 245 247 249 250 250 250 250 251 252 254 257 260 262 262 261 261 261 264
232 234 237 240 243 244 243 242 241 242 243 243 242 242 242 244 245 244 244 244 246 246 245 244 243 244 247 249 251 253 253 253 253 253 254 256 260 262 262 261 260 260
235 234 236 239 243 246 248 247 244 243 242 243 244 244 243 243 245 246 245 245 246 247 247 247 246 246 246 247 248 250 252 253 254 254 254 255 257 259 261 262 262 261
242 241 242 244 246 249 252 252 250 246 242 240 242 244 244 243 244 246 247 246 247 248 248 249 249 249 250 249 248 249 251 254 255 255 255 254 254 256 259 262 264 264
245 247 249 250 252 253 255 256 254 250 245 240 238 241 242 243 242 243 245 247 247 247 248 248 249 250 250 251 251 251 252 254 255 256 256 254 253 254 256 259 263 266
244 248 251 252 253 255 257 259 259 257 252 246 241 239 239 240 241 241 242 244 245 246 247 248 249 249 249 250 250 250 251 251 253 254 255 255 254 253 253 255 258 262
244 248 250 251 252 254 256 259 261 262 260 254 249 245 241 240 241 241 241 241 244 246 246 247 248 249 249 249 249 249 249 249 250 251 252 253 253 252 252 252 253 256
246 247 248 249 251 254 256 260 263 264 263 259 254 249 245 243 241 242 241 241 242 243 244 246 247 247 248 249 248 248 249 250 250 251 251 252 252 252 252 252 252 253
246 247 248 250 253 255 258 262 264 262 261 260 256 251 248 245 243 242 242 240 240 241 242 243 245 245 247 249 249 249 249 249 250 251 252 252 252 252 252 252 253 253
245 247 249 251 254 257 259 262 265 263 259 258 257 254 251 247 245 244 243 242 240 240 241 242 244 245 246 248 250 250 249 248 248 249 251 252 253 253 252 252 252 252
245 247 248 250 251 253 254 257 265 268 263 257 256 257 256 251 248 245 244 243 242 242 241 242 244 247 247 247 248 249 249 249 248 247 248 250 252 253 254 253 252 252
247 247 247 249 249 248 249 252 257 263 268 266 262 262 258 253 249 248 245 244 243 243 244 243 242 244 247 247 247 247 248 249 248 247 247 248 250 252 253 254 254 253
247 247 246 247 248 247 247 247 245 249 265 274 274 273 267 256 250 249 248 246 245 244 245 245 244 244 246 248 248 248 248 249 250 250 249 249 250 251 253 254 255 254
247 247 247 248 249 249 249 248 246 246 256 265 267 273 278 269 256 252 250 248 248 247 245 245 246 246 248 250 249 248 248 249 250 251 252 252 252 253 254 255 256 257